Location: Ku?niki
(51.4449°N, 17.8974°E)
Time: 14:19:52
(UTC+00:00)

NOSS 3-2 (C) - Pass Details

Date: 18 September 2020
Orbit: 795 x 1418 km, 63.4° (Epoch: 02 October)

Event Time Altitude Azimuth Distance (km) Brightness Sun altitude
Rises 18:44:00 0° 314° (NW) 3,878 8.0 -17.2°
Reaches altitude 10° 18:46:30 10° 315° (NW) 3,003 7.2 -17.5°
Maximum altitude 18:53:49 85° 44° (NE) 1,258 4.0 -18.6°
Enters shadow 18:58:45 28° 133° (SE) 2,277 4.8 -19.2°
